Location: Gro� Glienicke
(52.4675°N, 13.1079°E)
Time: 19:11:28
(UTC+00:00)

Cosmos 1825 Rocket - Pass Details

Date: 06 July 2020
Orbit: 603 x 631 km, 82.5° (Epoch: 12 August)

Event Time Altitude Azimuth Distance (km) Brightness Sun altitude
Rises 20:27:42 0° 194° (SSW) 2,901 6.6 -6.8°
Reaches altitude 10° 20:29:56 10° 196° (SSW) 2,002 5.8 -7.0°
Maximum altitude 20:34:22 74° 282° (WNW) 661 3.9 -7.4°
Drops below altitude 10° 20:38:52 10° 8° (N) 2,027 6.9 -7.8°
Sets 20:41:08 0° 10° (N) 2,940 7.8 -8.0°
